STARLINK-33874, 63825

Orbit data source: Space-Track

STARLINK-33874, 63825 is a payload satellite owned by SpaceX/Seattle (US) in LEO that was launched on Sun, 04 May 2025 UTC via an FALCON 9 launch vehicle from the Air Force Eastern Test Range (AFETR). Payload-class satellites include a variety of spacecraft equipped with specific instruments for various scientific and technological missions. These include communications satellites like Starlink; space stations such as the ISS; scientific satellites like the Hubble; Earth observation satellites from companies like Planet Labs, Umbra, and HawkEye 360; GPS; miniature CubeSats for education and research; and military/defense satellites.

Loading next visibility...
Identifier
63825, 2025-092X
Orbit
LEO
Country
Flag of USUS
Related business
Manufacturer
SpaceX/Seattle
Mission
Operational Commercial Communications
Bus & Motor
STARLINK V2MO, Unknown motor
Mass
575 kg wet, ~530 kg dry
Launch date (UTC)
2025-05-04 (10 months ago)
Launch vehicle
FALCON 9
Launch site
Air Force Eastern Test Range (AFETR)
Object type
Payload
Rocket body
Debris
Shape & HBR
Box + 2 Pan, 17.7 m
Radar Cross Section
36.964 m², Large (>1 m²)

Expand to show TLE details & history
Last TLE update: 6 hours ago

TLE from 6 hours ago
0 STARLINK-33874
1 63825U 25092X   26072.61128625  .00033778  00000-0  12311-2 0  9998
2 63825  43.0037 150.4645 0002171 288.1625  71.8990 15.27586365 49264
Epoch: 2026-03-13T14:40Z
TLE epoch observation values (Epoch: 2026-03-13T14:40:15.131Z)
Latitude
-0.00006°
Longitude
119.15706°
Altitude
482.343 km
Speed
7.626 km/s
True Right ascension
10h 01m 51s
True Declination
0° 00' 00"
Sunlit
Object was in full shadow at epoch
Visualization orbit readout
Latitude
Unknown
Longitude
Unknown
Altitude
Unknown
Speed
Unknown
Apparent Right ascension
Unknown
Apparent Declination
Unknown
Sunlit
N/A
Visualization observer readout
Local Sidereal Time
00:40:51
Azimuth
Unknown
Elevation
Unknown
Doppler factor
Unknown
Orbital elements
Apogee altitude
486.465 km
Perigee altitude
483.485 km
Semi-major axis
6,863.112 km
Eccentricity
0.00022
Inclination
43.0037°
RAAN
150.4645°
Arg. of periapsis
288.1625°
True anomaly
71.92265°
Mean anomaly
71.899°
Eccentric anomaly
71.91082°
Mean motion
3.81735 °/min
Orbital period
94.31 mins
BSTAR
0.0012311
Loading maneuver chart data...
Computing Atmospheric mass density...
Loading historical data...
Loading historical data...
Loading historical data...
Loading historical data...
Loading historical data...
Loading historical data...
Loading historical data...

Documentation

Showing up to 5 results
|